Location: Westminster
(33.3626°N, 96.4619°W)
Time: 21:19:08
(UTC+00:00)

OAO 3 Rocket - Pass Details

Date: 03 July 2022
Orbit: 627 x 681 km, 35.0° (Epoch: 14 August)

Event Time Altitude Azimuth Distance (km) Brightness Sun altitude
Exits shadow 09:53:54 11° 281° (W) 2,058 5.4 -15.7°
Maximum altitude 09:58:43 80° 8° (N) 691 3.3 -14.9°
Drops below altitude 10° 10:03:38 10° 96° (E) 2,100 6.4 -14.1°
Sets 10:06:01 0° 97° (E) 3,007 7.3 -13.8°
